Theta_e
314 311 311 311 313 315 316 319 318 319 321 322 322 322 322 323 324 324 325 325 324 323 323 322 321 319 315 301 301 318 322 322 319 320 312 305 302 300 295 295 299 297 298 304 305 305 304
314 313 311 310 310 312 314 317 319 318 319 320 320 321 321 322 323 324 324 325 324 323 323 323 321 319 308 293 313 314 313 317 319 314 308 306 302 303 298 296 297 300 300 302 304 303 303
314 313 312 310 309 311 313 313 317 318 318 319 320 320 320 321 322 323 323 324 324 323 323 323 321 316 303 298 311 312 313 314 317 316 310 307 311 302 300 298 303 300 295 297 299 301 299
314 313 311 311 308 309 312 313 313 317 317 318 319 319 319 320 321 322 322 322 323 323 323 323 321 309 297 311 309 309 311 310 316 319 317 315 314 307 303 302 300 295 292 287 294 300 299
312 312 311 310 308 310 310 312 313 314 316 316 317 318 318 319 320 320 321 321 321 322 322 322 309 303 297 314 305 309 308 307 315 316 316 318 312 302 302 295 290 291 282 286 290 299 297
310 313 311 310 309 309 310 310 312 312 312 316 316 317 318 319 319 319 320 320 320 320 318 316 312 300 303 300 306 308 309 309 312 311 308 306 301 297 295 291 283 286 285 287 286 294 294
310 311 312 310 309 309 310 310 311 312 312 313 316 315 318 318 318 319 317 312 305 303 308 300 300 300 302 306 309 305 307 308 309 305 295 300 292 289 294 294 292 291 288 286 287 295 293
309 310 312 311 310 310 309 309 309 311 312 312 314 313 316 318 318 318 314 305 305 306 298 304 305 304 306 307 300 302 308 302 301 294 296 294 288 294 297 297 293 291 289 288 292 295 293
308 309 310 311 310 310 309 309 309 310 310 312 312 313 313 317 317 314 309 306 311 307 295 298 302 302 302 304 298 298 304 301 296 292 292 288 291 297 294 292 291 290 289 288 287 292 292
307 308 309 310 311 310 309 309 309 309 309 311 312 312 313 316 311 309 306 310 311 306 285 290 297 300 302 302 295 304 305 300 296 292 292 291 295 294 293 291 291 287 293 293 291 287 282
308 307 308 309 310 309 308 308 309 308 309 310 311 311 312 315 307 305 309 311 310 303 276 289 295 305 302 297 296 298 304 298 292 293 293 288 290 291 290 292 294 290 294 292 291 287 283
308 307 308 308 309 310 309 308 308 308 307 309 310 311 310 309 311 310 311 309 303 284 276 287 296 295 295 297 296 298 298 299 299 293 292 291 296 294 293 295 295 296 293 291 289 285 276
308 308 307 308 309 309 309 308 306 307 307 308 308 310 309 310 303 312 310 303 284 280 285 286 289 295 293 292 294 295 293 292 288 285 285 289 290 293 296 292 293 292 287 278 273 277 275
307 308 307 308 308 309 309 308 307 307 306 306 307 309 308 308 310 311 306 291 280 281 281 290 292 292 288 292 292 293 291 288 292 288 286 283 282 292 295 292 290 290 287 277 271 274 277
307 307 307 308 308 309 309 307 307 307 307 306 306 303 303 306 311 310 298 283 283 281 285 288 290 287 287 291 291 291 289 289 291 291 284 282 282 291 294 294 295 290 286 289 281 273 275
307 307 307 308 308 309 309 307 306 306 306 306 299 298 298 306 310 305 290 285 285 287 290 290 284 288 284 288 288 288 289 292 290 293 293 288 281 288 291 294 292 291 293 283 283 268 269
307 307 307 307 306 308 307 306 306 306 306 305 297 290 300 307 307 297 285 285 286 290 292 286 283 284 286 287 287 287 288 289 294 293 293 289 287 286 291 290 288 288 286 288 285 279 275
306 306 307 306 303 302 302 303 304 304 304 301 294 285 298 308 290 287 285 285 291 289 290 288 287 285 285 288 286 286 286 287 295 295 290 291 288 284 287 290 293 292 288 288 279 277 277
306 305 303 302 303 303 304 305 304 304 305 296 285 288 300 305 285 284 286 288 290 289 286 286 285 287 288 286 284 286 287 292 294 294 292 292 285 279 282 287 288 288 289 289 287 284 280
304 303 302 302 302 302 301 303 303 305 305 296 287 284 288 296 289 286 285 285 286 291 288 288 287 289 287 286 286 284 285 289 292 294 297 295 287 282 278 281 286 284 286 288 286 279 281
304 303 303 304 303 304 304 306 302 303 305 294 286 283 285 282 283 288 288 287 286 285 289 289 286 286 285 280 282 282 286 287 291 296 294 292 284 285 285 286 285 285 285 286 285 286 282
304 304 304 303 304 303 304 303 305 303 302 289 284 284 286 285 288 288 289 286 286 284 285 283 284 287 287 284 284 283 286 286 287 290 291 292 282 286 282 285 283 282 284 285 285 285 285
303 304 304 304 304 304 303 303 303 302 297 286 291 293 288 288 287 286 285 287 287 287 287 288 289 287 286 289 291 291 291 291 290 289 287 287 281 277 271 279 279 272 278 282 283 285 285
303 303 303 303 303 303 303 303 303 302 299 294 293 292 286 282 286 285 286 288 287 287 285 287 290 288 289 294 292 291 289 288 288 287 290 284 280 275 269 271 266 280 282 286 285 286 286
302 302 303 302 302 302 302 302 302 301 300 294 293 291 286 282 285 287 287 287 287 288 286 287 288 289 292 289 282 281 281 279 278 282 285 287 282 274 270 262 274 277 281 282 281 281 285
301 302 302 302 301 302 301 302 302 301 300 294 293 293 289 284 282 286 285 288 285 283 284 285 289 291 289 283 277 271 272 272 272 274 282 285 284 277 265 266 266 277 283 284 283 277 284
301 301 301 301 301 301 301 302 301 301 300 294 291 293 291 284 286 287 284 285 287 285 283 285 286 286 288 275 274 267 268 274 272 272 274 271 271 272 265 268 271 280 281 284 273 277 283
301 300 301 301 301 300 300 301 301 302 301 294 290 293 290 285 286 287 287 286 286 285 284 285 286 285 284 281 276 270 266 272 270 273 274 276 273 272 274 268 272 281 280 279 284 281 282
300 300 300 300 301 301 301 301 302 302 300 295 289 293 293 286 285 288 288 289 288 289 288 286 282 281 285 280 277 276 268 267 267 268 278 275 279 274 278 277 282 281 283 284 282 282 281
Wind_Speed
18 15 16 17 17 15 12 17 14 13 15 17 15 15 16 18 18 18 15 13 12 11 9 8 6 2 1 2 5 3 5 5 3 3 2 3 4 4 5 3 1 3 1 2 1 5 4
19 18 16 16 17 16 13 13 20 15 15 16 16 15 16 17 18 18 17 15 13 11 9 8 6 4 2 4 2 1 3 4 2 1 1 3 4 3 2 2 5 2 2 0 1 3 5
19 19 16 15 16 18 17 10 16 19 16 14 15 17 16 16 17 17 17 16 13 11 10 8 6 2 1 8 1 1 2 1 1 1 1 2 1 2 0 3 1 2 3 4 1 2 1
15 15 14 16 15 17 16 17 9 19 16 14 12 16 18 16 18 17 16 16 14 12 10 8 5 1 4 1 3 1 1 2 2 1 2 0 2 2 2 0 5 4 6 1 4 4 2
17 17 16 16 16 17 16 16 13 7 18 15 12 17 20 19 17 17 17 15 14 14 11 8 3 3 5 1 2 4 1 2 1 2 3 2 3 2 3 6 4 3 3 5 6 7 4
18 18 19 17 17 16 16 15 17 13 8 15 14 15 21 21 21 18 17 17 13 10 6 3 2 1 3 5 2 2 1 0 2 3 3 3 4 2 3 4 7 6 3 4 5 4 4
20 18 21 19 18 17 16 15 15 16 13 8 17 14 18 23 21 19 16 10 7 4 5 5 8 4 5 2 3 1 2 3 3 4 4 2 4 9 10 7 4 6 3 4 3 3 5
20 17 16 20 18 17 16 17 16 16 19 14 11 17 19 23 22 22 15 10 10 8 6 3 2 3 3 3 3 2 4 5 4 4 4 4 6 7 4 5 3 0 1 3 1 1 2
20 18 15 19 20 18 17 18 17 17 15 16 14 11 19 17 24 19 19 15 10 7 6 4 4 4 5 5 4 8 8 5 5 6 5 6 4 10 6 5 6 5 5 2 1 3 2
21 20 17 16 21 20 17 18 17 16 15 16 18 16 11 17 18 17 18 13 9 4 5 5 9 7 5 6 4 6 7 6 5 9 7 4 5 7 5 6 6 6 6 5 3 3 3
21 21 17 17 18 22 19 17 16 17 16 13 19 18 17 20 11 23 17 10 6 6 6 10 9 5 10 11 8 5 3 1 8 8 8 8 4 5 4 5 4 4 4 6 4 2 3
23 20 21 18 17 22 21 19 18 18 19 15 14 19 18 7 6 17 16 13 8 6 9 7 8 13 12 7 5 5 5 1 4 4 3 5 1 5 8 3 6 5 6 6 5 4 3
25 23 22 20 19 19 22 21 20 20 20 17 15 19 16 9 9 17 19 13 10 9 2 10 9 14 18 12 7 7 14 9 8 8 7 3 2 1 2 6 1 3 5 2 4 1 7
25 24 23 22 20 19 25 23 21 22 21 17 16 16 11 11 12 19 15 11 11 7 9 4 10 18 14 17 8 7 14 11 7 2 8 8 6 8 6 7 7 7 6 6 8 6 4
27 23 21 22 21 20 24 25 23 22 19 16 15 8 7 8 15 16 16 18 10 8 10 14 14 17 9 14 7 9 13 16 11 9 7 7 5 0 1 4 9 6 5 5 5 3 3
26 23 21 20 20 21 25 25 22 22 19 17 4 8 15 12 16 13 16 10 6 8 15 19 10 9 12 19 9 13 16 15 7 9 4 6 3 2 2 3 2 5 7 2 2 2 4
21 20 17 16 14 16 19 21 21 21 20 19 4 6 8 17 16 13 18 10 6 9 16 8 8 9 7 17 9 15 16 3 17 12 6 4 4 2 5 8 10 4 4 3 4 4 4
13 10 11 17 14 14 16 22 22 22 21 17 4 11 4 18 18 12 10 12 7 18 3 6 6 7 12 15 9 9 11 4 16 12 10 3 4 3 5 2 4 3 5 6 5 4 3
20 18 13 11 15 18 22 23 23 25 26 6 5 5 2 19 15 11 8 6 8 18 7 7 5 5 6 12 6 5 6 6 12 11 15 5 4 2 2 3 3 4 4 4 4 3 5
16 11 7 4 3 11 24 31 28 27 28 6 4 5 3 5 1 13 16 16 11 1 3 5 7 8 11 11 4 8 5 1 5 8 9 12 4 5 5 3 6 5 7 7 7 5 3
16 13 10 13 12 16 14 12 32 28 29 6 3 3 2 5 6 14 11 15 23 8 2 5 4 8 11 7 4 6 5 3 5 11 6 7 5 6 3 5 4 4 11 15 15 13 11
20 19 16 16 16 17 22 19 21 26 22 4 5 4 2 4 15 17 11 17 27 8 8 5 12 12 6 12 9 12 9 5 5 2 6 8 2 3 1 3 1 3 6 7 6 4 7
21 20 20 21 23 22 21 16 15 10 10 3 3 2 4 9 14 11 4 17 23 13 6 7 19 14 7 10 7 5 3 6 12 10 6 9 7 4 3 1 2 6 8 8 6 6 8
18 17 18 17 16 15 19 17 14 15 8 3 0 1 3 5 7 5 11 18 18 4 10 5 10 8 3 16 10 11 16 13 9 6 6 7 6 3 3 3 3 6 2 8 15 13 11
15 14 16 16 14 15 16 15 13 15 14 5 1 2 3 6 6 15 16 13 11 11 7 6 5 1 12 6 6 7 5 7 6 6 4 5 6 4 6 5 6 4 4 8 9 12 12
13 12 11 13 15 14 14 16 17 15 12 4 5 1 4 5 5 4 9 12 11 5 4 5 6 6 4 5 5 6 6 6 5 4 6 5 4 6 3 6 10 6 8 7 5 11 11
11 12 11 12 14 16 17 15 17 19 15 6 4 6 6 8 3 3 4 5 4 5 6 5 1 4 5 3 4 4 4 3 7 10 7 3 3 8 4 3 10 9 6 7 6 9 9
9 12 10 10 12 14 15 17 16 18 16 8 1 8 5 6 3 5 5 5 6 2 7 7 5 2 3 4 4 5 4 7 4 4 8 9 7 5 3 2 15 9 3 13 15 3 7
9 11 11 12 12 12 13 16 19 19 17 6 5 4 5 8 4 4 6 5 4 1 10 1 2 4 5 5 1 4 2 1 5 4 2 4 9 9 12 11 4 8 10 11 3 5 5
Wind_Direction
263 254 260 274 257 256 275 243 250 261 244 222 207 202 207 200 191 187 182 181 180 180 179 182 192 178 229 203 241 208 274 297 302 153 214 189 174 163 183 201 179 156 257 60 55 32 41
269 246 250 253 268 262 259 252 225 236 257 241 215 204 201 199 197 189 182 179 176 179 174 180 180 151 169 212 179 133 314 316 48 39 196 203 194 229 224 233 158 125 225 41 248 7 15
282 232 244 247 259 256 248 264 232 214 242 244 233 210 202 197 195 191 183 176 173 174 171 169 185 153 106 228 213 204 287 246 20 12 10 214 261 161 98 118 150 87 70 346 244 163 25
303 230 243 246 252 258 258 243 265 223 209 235 226 233 205 196 194 187 181 177 168 169 164 159 172 129 228 251 302 244 249 282 314 296 128 327 47 124 116 143 26 77 60 71 284 163 160
310 253 247 243 256 243 246 250 227 236 227 219 235 227 211 196 191 184 181 171 168 168 159 151 128 129 248 24 201 228 173 178 110 21 35 44 48 130 55 97 41 2 192 206 305 197 136
307 273 241 235 243 245 247 245 233 224 235 221 215 237 215 195 191 182 175 163 173 149 144 56 29 172 254 219 185 191 178 325 130 100 53 73 53 95 113 132 199 189 201 233 220 209 145
305 305 243 229 232 238 237 242 238 234 224 242 214 221 220 189 188 183 162 120 143 174 196 187 187 186 131 150 77 223 174 123 94 93 154 163 112 204 198 154 118 131 179 231 236 232 149
302 301 265 232 227 231 231 236 236 240 223 214 229 213 230 207 187 184 157 177 171 136 162 244 188 104 135 174 107 196 137 131 131 164 132 66 220 221 211 209 202 193 187 265 38 346 142
290 291 284 251 233 223 227 230 234 231 236 208 200 206 214 221 186 172 180 180 166 138 120 217 207 160 177 139 188 198 147 142 130 144 176 170 238 199 190 194 191 193 176 198 68 348 291
283 283 275 267 240 221 219 222 224 229 233 227 198 210 206 214 188 178 190 181 164 203 90 213 194 228 155 143 253 172 196 146 173 175 153 228 251 178 175 200 150 177 196 157 121 57 241
275 270 264 265 249 224 212 217 221 218 225 233 206 202 204 212 145 190 167 154 152 55 208 186 170 161 152 160 139 210 159 353 172 161 136 230 208 183 172 184 149 195 171 172 141 139 15
268 262 262 252 249 228 209 211 216 215 217 226 224 205 201 210 205 169 146 133 74 151 224 165 146 166 154 170 159 127 142 283 161 119 109 203 230 179 186 122 151 153 89 53 65 82 303
265 257 253 250 241 229 212 203 214 216 215 219 225 203 191 175 232 158 141 149 185 196 208 177 167 165 173 167 143 180 177 180 163 150 178 155 254 248 168 106 105 126 113 50 1 212 232
268 254 244 243 239 227 214 199 210 212 210 217 223 224 191 197 217 158 159 173 204 139 186 161 148 157 176 158 178 176 165 178 238 126 128 161 195 189 193 172 169 176 177 158 193 191 236
255 252 245 237 236 229 216 198 198 207 204 208 215 224 221 197 179 177 176 196 174 179 145 143 138 163 165 175 150 166 191 193 200 187 144 147 230 318 148 138 146 185 191 170 98 19 60
242 241 241 231 232 239 209 195 195 201 199 192 211 218 219 188 189 207 184 187 181 159 134 137 146 178 169 175 160 179 180 197 192 181 231 187 114 220 149 108 83 164 150 110 58 152 243
225 228 234 223 209 193 191 193 196 199 197 190 194 227 198 192 186 206 196 185 160 180 133 134 144 136 155 176 181 184 186 212 184 185 159 158 109 168 150 214 170 149 177 178 139 158 175
188 206 202 168 175 197 205 217 206 201 193 189 209 227 233 166 192 188 179 154 176 162 152 116 109 108 160 164 171 178 187 185 191 178 170 154 82 180 190 337 249 169 173 164 141 227 240
91 96 116 165 206 223 228 216 203 200 191 150 206 211 225 186 185 164 135 144 152 159 151 148 134 130 158 152 134 181 187 223 173 181 172 154 123 176 119 297 359 197 205 168 129 93 206
93 101 104 113 53 263 262 235 209 195 186 137 183 166 287 214 198 142 135 147 132 148 90 100 114 106 107 155 80 167 141 62 156 160 114 128 170 207 197 153 130 197 189 199 188 206 158
67 60 69 81 71 32 20 169 177 187 188 130 229 237 177 151 142 143 126 145 142 144 256 164 64 147 137 127 107 130 117 105 43 146 95 115 199 188 141 132 134 200 214 213 215 225 229
53 50 63 63 42 83 53 61 89 131 146 122 144 186 131 101 138 133 132 167 156 154 157 199 133 143 134 152 171 169 135 145 161 151 121 162 182 165 336 359 208 223 220 207 217 202 249
53 50 65 84 72 65 71 66 88 127 90 116 225 173 93 142 148 143 165 162 159 137 29 137 136 125 124 158 114 88 76 129 157 145 136 177 135 121 234 296 68 318 213 201 203 205 199
54 62 78 71 68 67 70 80 70 105 141 135 34 159 110 91 118 137 155 163 160 119 123 124 113 105 169 119 89 54 55 55 56 41 138 149 112 92 162 38 281 236 335 216 214 225 220
48 65 74 74 68 64 66 64 68 71 77 92 62 90 80 91 101 115 124 124 94 67 62 76 38 87 151 85 74 65 9 30 346 12 32 131 122 109 138 195 304 279 218 169 168 245 228
53 73 76 77 65 65 66 56 45 44 52 82 50 336 82 92 25 69 90 131 125 114 63 27 6 39 77 78 83 138 171 166 229 347 343 74 75 124 119 155 215 232 204 162 100 257 228
76 88 81 75 64 57 54 55 49 34 42 67 34 356 89 99 26 39 96 121 93 85 90 104 99 38 25 83 91 135 211 181 163 161 173 91 34 180 174 206 279 240 235 114 141 239 205
104 94 87 83 76 63 55 48 41 31 35 55 342 11 96 89 61 27 35 100 98 90 137 162 101 13 54 96 133 203 127 212 110 176 177 160 147 179 115 106 263 177 64 177 222 124 157
98 100 87 82 78 66 56 43 35 37 49 65 45 352 24 69 93 61 84 49 21 33 122 52 118 149 152 114 132 104 76 69 148 206 210 207 181 178 182 209 214 197 205 223 161 211 212